Location: Bouillancy
(49.1149°N, 2.9308°E)
Time: 08:03:43
(UTC+00:00)

Cosmos 1140 Rocket - Pass Details

Date: 30 September 2020
Orbit: 745 x 767 km, 74.1° (Epoch: 29 October)

Event Time Altitude Azimuth Distance (km) Brightness Sun altitude
Rises 20:35:26 0° 335° (NNW) 3,200 7.6 -30.0°
Reaches altitude 10° 20:37:48 10° 334° (NNW) 2,272 6.6 -30.3°
Enters shadow 20:41:39 51° 323° (NW) 938 4.1 -30.8°
